Location: Peers
(53.6667°N, 115.9833°W)
Time: 02:57:41
(UTC+00:00)

N. Korean satellite - Visible Passes

Search period start: 27 November 2021 00:00
Search period end: 07 December 2021 00:00
Orbit: 447 x 495 km, 97.3° (Epoch: 26 November)

Date Brightness Start Highest point End Pass type
(mag) Time Alt. Az. Time Alt. Az. Time Alt. Az.
27 Nov 7.4 12:52:52 10° NNE 12:56:13 48° E 12:59:31 10° S visible
27 Nov 7.9 14:26:46 10° NNW 14:29:08 17° WNW 14:31:27 10° WSW visible
28 Nov 9.7 01:07:15 10° SW 01:09:41 17° W 01:12:06 10° NW visible
28 Nov 8.8 12:24:47 10° NE 12:27:38 24° E 12:30:25 10° SSE visible
28 Nov 7.1 13:57:48 10° N 14:00:53 31° WNW 14:03:55 10° SW visible
29 Nov 8.6 00:37:47 10° SSW 00:41:02 32° W 00:44:15 10° NNW visible
29 Nov 9.8 11:57:22 10° ENE 11:58:53 12° E 12:00:24 10° ESE visible
29 Nov 6.3 13:29:07 10° N 13:32:31 64° WNW 13:35:52 10° SSW visible
30 Nov 7.0 00:08:55 10° S 00:12:28 66° WSW 00:16:00 10° NNW visible
30 Nov 6.9 13:00:38 10° NNE 13:04:02 59° E 13:07:23 10° S visible
30 Nov 8.1 14:34:50 10° NNW 14:36:51 15° WNW 14:38:50 10° W visible
01 Dec 9.8 01:15:34 10° WSW 01:17:34 14° W 01:19:33 10° NW visible
01 Dec 8.5 12:32:26 10° NNE 12:35:26 28° E 12:38:25 10° SSE visible
01 Dec 7.4 14:05:41 10° N 14:08:36 26° WNW 14:11:29 10° WSW visible
02 Dec 8.9 00:45:48 10° SSW 00:48:51 27° W 00:51:53 10° NW visible
02 Dec 9.5 12:04:42 10° NE 12:06:44 15° E 12:08:44 10° SE visible
02 Dec 6.5 13:36:55 10° N 13:40:15 52° WNW 13:43:32 10° SSW visible
03 Dec 7.4 00:16:46 10° S 00:20:14 53° W 00:23:42 10° NNW visible
03 Dec 6.5 13:08:21 10° NNE 13:11:46 74° ESE 13:15:09 10° S visible
03 Dec 8.3 14:42:54 10° NNW 14:44:29 13° WNW 14:46:03 10° W visible
04 Dec 9.9 01:24:00 10° WSW 01:25:22 12° W 01:26:44 10° WNW visible
04 Dec 8.1 12:40:02 10° NNE 12:43:11 34° E 12:46:18 10° SSE visible
04 Dec 7.6 14:13:32 10° NNW 14:16:15 22° WNW 14:18:56 10° WSW visible
05 Dec 9.3 00:53:48 10° SSW 00:56:36 22° W 00:59:25 10° NW visible
05 Dec 9.3 12:12:06 10° NE 12:14:29 18° E 12:16:51 10° SE visible
05 Dec 6.7 13:44:39 10° N 13:47:54 42° WNW 13:51:07 10° SW visible
06 Dec 7.9 00:24:34 10° S 00:27:57 43° W 00:31:18 10° NNW visible
06 Dec 6.3 13:16:00 10° NNE 13:19:26 90° SW 13:22:49 10° SSW visible
06 Dec 8.4 14:51:06 10° NW 14:52:03 11° NW 14:53:00 10° WNW visible
